Orbital Elements at Epoch 2459000.5 (2020-May-31.0) TDB
Reference: JPL 3 (heliocentric ecliptic J2000)
Element | Value | Uncertainty (1-sigma) | Units |
e | .4117007439785977 | 0.00056424 | |
a | .797035152033039 | 0.00018151 | au |
q | .4688951869639421 | 0.0005565 | au |
i | 6.036783412359558 | 0.011967 | deg |
node | 21.62782379483834 | 0.01041 | deg |
peri | 337.5514527065575 | 0.010651 | deg |
M | 71.65954905055651 | 0.2192 | deg |
tp | 2458948.764790685169 (2020-Apr-09.26479069) | 0.14058 | TDB |
period | 259.905003591349 0.71 | 0.088783 0.0002431 | d yr |
n | 1.385121467557552 | 0.00047316 | deg/d |
Q | 1.125175117102136 | 0.00025624 | au |
|
| | Orbit Determination Parameters
Additional Information
|